| time (UTC) | temp F | wind direction | speed knots | gust knots | rain 1hr in | rain 24hr in | rain mn in | humidity % | barometer mb |
| 20260906231902 | 80 | 129 | 0.0 | 2.6 | 0.00 | 0.00 | 0.00 | 25 | 1104.2 |
| 20260906231357 | 80 | 263 | 2.6 | 5.2 | 0.00 | 0.00 | 0.00 | 26 | 1104.3 |
| 20260906230857 | 81 | 117 | 0.9 | 4.3 | 0.00 | 0.00 | 0.00 | 24 | 1104.0 |
| 20260906230352 | 81 | 202 | 2.6 | 4.3 | 0.00 | 0.00 | 0.00 | 24 | 1104.2 |
| 20260906225850 | 82 | 205 | 1.7 | 6.1 | 0.00 | 0.00 | 0.00 | 22 | 1104.0 |
| 20260906225346 | 82 | 136 | 0.9 | 4.3 | 0.00 | 0.00 | 0.00 | 24 | 1104.2 |
| 20260906224841 | 83 | 221 | 4.3 | 7.0 | 0.00 | 0.00 | 0.00 | 22 | 1104.2 |
| 20260906224338 | 82 | 318 | 2.6 | 4.3 | 0.00 | 0.00 | 0.00 | 21 | 1104.2 |
| 20260906223834 | 82 | 135 | 1.7 | 6.1 | 0.00 | 0.00 | 0.00 | 23 | 1104.2 |
| 20260906223330 | 83 | 121 | 0.9 | 1.7 | 0.00 | 0.00 | 0.00 | 23 | 1104.2 |
| 20260906222827 | 83 | 162 | 1.7 | 4.3 | 0.00 | 0.00 | 0.00 | 22 | 1104.3 |
| 20260906222326 | 83 | 288 | 1.7 | 4.3 | 0.00 | 0.00 | 0.00 | 20 | 1104.4 |
| 20260906221825 | 83 | 281 | 1.7 | 7.0 | 0.00 | 0.00 | 0.00 | 21 | 1104.4 |
| 20260906221325 | 84 | 167 | 2.6 | 4.3 | 0.00 | 0.00 | 0.00 | 21 | 1104.6 |
| 20260906220820 | 85 | 152 | 1.7 | 2.6 | 0.00 | 0.00 | 0.00 | 21 | 1104.2 |
| 20260906220315 | 86 | 213 | 1.7 | 4.3 | 0.00 | 0.00 | 0.00 | 21 | 1104.3 |
| 20260906215814 | 85 | 295 | 3.5 | 4.3 | 0.00 | 0.00 | 0.00 | 21 | 1104.3 |
| 20260906215309 | 85 | 344 | 3.5 | 6.1 | 0.00 | 0.00 | 0.00 | 20 | 1104.5 |
| 20260906214807 | 85 | 279 | 3.5 | 8.7 | 0.00 | 0.00 | 0.00 | 20 | 1104.5 |
| 20260906214302 | 86 | 290 | 2.6 | 6.1 | 0.00 | 0.00 | 0.00 | 22 | 1104.3 |
| 20260906213801 | 85 | 306 | 3.5 | 7.0 | 0.00 | 0.00 | 0.00 | 22 | 1104.0 |
| 20260906213300 | 85 | 150 | 0.9 | 2.6 | 0.00 | 0.00 | 0.00 | 22 | 1104.4 |
| 20260906212758 | 85 | 359 | 1.7 | 6.1 | 0.00 | 0.00 | 0.00 | 21 | 1104.7 |
| 20260906212253 | 85 | 149 | 1.7 | 5.2 | 0.00 | 0.00 | 0.00 | 23 | 1104.7 |
| 20260906211753 | 85 | 160 | 0.9 | 7.0 | 0.00 | 0.00 | 0.00 | 23 | 1104.7 |
| 20260906211248 | 86 | 191 | 2.6 | 4.3 | 0.00 | 0.00 | 0.00 | 23 | 1105.1 |
| 20260906210744 | 86 | 196 | 1.7 | 7.0 | 0.00 | 0.00 | 0.00 | 23 | 1104.8 |
| 20260906210238 | 85 | 241 | 3.5 | 6.1 | 0.00 | 0.00 | 0.00 | 21 | 1105.3 |
| 20260906205733 | 86 | 140 | 1.7 | 4.3 | 0.00 | 0.00 | 0.00 | 23 | 1105.1 |
| 20260906205230 | 85 | 272 | 1.7 | 4.3 | 0.00 | 0.00 | 0.00 | 24 | 1105.6 |
| 20260906204731 | 85 | 118 | 5.2 | 7.8 | 0.00 | 0.00 | 0.00 | 23 | 1105.3 |
| 20260906204229 | 85 | 343 | 3.5 | 5.2 | 0.00 | 0.00 | 0.00 | 24 | 1105.4 |
| 20260906203729 | 84 | 117 | 1.7 | 5.2 | 0.00 | 0.00 | 0.00 | 24 | 1105.5 |
| 20260906203224 | 84 | 322 | 1.7 | 7.0 | 0.00 | 0.00 | 0.00 | 23 | 1105.3 |
| 20260906202721 | 84 | 195 | 1.7 | 6.1 | 0.00 | 0.00 | 0.00 | 23 | 1105.3 |
| 20260906202220 | 84 | 156 | 6.1 | 8.7 | 0.00 | 0.00 | 0.00 | 21 | 1105.2 |
| 20260906201715 | 84 | 317 | 5.2 | 8.7 | 0.00 | 0.00 | 0.00 | 21 | 1105.2 |
| 20260906201215 | 84 | 176 | 1.7 | 7.0 | 0.00 | 0.00 | 0.00 | 24 | 1105.5 |
| 20260906200711 | 83 | 122 | 1.7 | 13.0 | 0.00 | 0.00 | 0.00 | 23 | 1105.3 |
| 20260906200206 | 84 | 157 | 2.6 | 6.1 | 0.00 | 0.00 | 0.00 | 25 | 1105.4 |
| 20260906195701 | 83 | 236 | 0.9 | 6.1 | 0.00 | 0.00 | 0.00 | 25 | 1105.3 |
| 20260906195158 | 84 | 159 | 2.6 | 6.1 | 0.00 | 0.00 | 0.00 | 27 | 1105.6 |
| 20260906194654 | 83 | 345 | 1.7 | 2.6 | 0.00 | 0.00 | 0.00 | 27 | 1105.8 |
| 20260906194149 | 83 | 234 | 0.9 | 2.6 | 0.00 | 0.00 | 0.00 | 30 | 1105.6 |
| 20260906193644 | 83 | 261 | 1.7 | 4.3 | 0.00 | 0.00 | 0.00 | 28 | 1105.5 |
| 20260906193139 | 82 | 264 | 1.7 | 2.6 | 0.00 | 0.00 | 0.00 | 29 | 1105.9 |
| 20260906192635 | 83 | 209 | 0.9 | 1.7 | 0.00 | 0.00 | 0.00 | 28 | 1105.8 |
| 20260906192134 | 83 | 3 | 2.6 | 4.3 | 0.00 | 0.00 | 0.00 | 27 | 1106.1 |
| 20260906191629 | 81 | 198 | 0.9 | 4.3 | 0.00 | 0.00 | 0.00 | 31 | 1106.1 |
| 20260906191128 | 80 | 207 | 0.9 | 2.6 | 0.00 | 0.00 | 0.00 | 33 | 1106.2 |
| 20260906190623 | 80 | 19 | 0.9 | 1.7 | 0.00 | 0.00 | 0.00 | 32 | 1106.3 |
| 20260906190117 | 80 | 220 | 1.7 | 4.3 | 0.00 | 0.00 | 0.00 | 32 | 1106.4 |
| 20260906185615 | 80 | 234 | 0.0 | 1.7 | 0.00 | 0.00 | 0.00 | 32 | 1106.6 |
| 20260906185115 | 80 | 329 | 2.6 | 5.2 | 0.00 | 0.00 | 0.00 | 34 | 1106.8 |
| 20260906184610 | 80 | 181 | 0.9 | 4.3 | 0.00 | 0.00 | 0.00 | 33 | 1106.9 |
| 20260906184105 | 80 | 243 | 1.7 | 6.1 | 0.00 | 0.00 | 0.00 | 33 | 1106.9 |
| 20260906183601 | 79 | 281 | 2.6 | 5.2 | 0.00 | 0.00 | 0.00 | 37 | 1106.9 |
| 20260906183052 | 78 | 236 | 3.5 | 4.3 | 0.00 | 0.00 | 0.00 | 37 | 1107.0 |
| 20260906182552 | 78 | 169 | 0.9 | 1.7 | 0.00 | 0.00 | 0.00 | 35 | 1107.3 |
| 20260906182049 | 78 | 188 | 0.0 | 2.6 | 0.00 | 0.00 | 0.00 | 40 | 1107.3 |
| 20260906181544 | 78 | 218 | 2.6 | 2.6 | 0.00 | 0.00 | 0.00 | 39 | 1107.1 |
| 20260906181039 | 78 | 230 | 0.9 | 1.7 | 0.00 | 0.00 | 0.00 | 39 | 1107.1 |
| 20260906180534 | 78 | 221 | 0.9 | 4.3 | 0.00 | 0.00 | 0.00 | 37 | 1107.4 |
| 20260906180033 | 78 | 210 | 0.9 | 1.7 | 0.00 | 0.00 | 0.00 | 38 | 1107.6 |
| 20260906175527 | 77 | 254 | 2.6 | 4.3 | 0.00 | 0.00 | 0.00 | 40 | 1107.9 |
| 20260906175027 | 77 | 226 | 0.9 | 1.7 | 0.00 | 0.00 | 0.00 | 39 | 1107.4 |
| 20260906174524 | 75 | 185 | 0.0 | 0.9 | 0.00 | 0.00 | 0.00 | 43 | 1107.7 |
| 20260906174019 | 75 | 227 | 0.9 | 2.6 | 0.00 | 0.00 | 0.00 | 41 | 1107.9 |
| 20260906173514 | 75 | 284 | 1.7 | 2.6 | 0.00 | 0.00 | 0.00 | 42 | 1108.1 |
| 20260906173010 | 75 | 220 | 0.0 | 2.6 | 0.00 | 0.00 | 0.00 | 42 | 1107.9 |
| 20260906172505 | 74 | 244 | 0.0 | 1.7 | 0.00 | 0.00 | 0.00 | 41 | 1108.2 |
| 20260906172001 | 73 | 180 | 1.7 | 1.7 | 0.00 | 0.00 | 0.00 | 44 | 1108.3 |
| 20260906171455 | 73 | 219 | 0.9 | 4.3 | 0.00 | 0.00 | 0.00 | 45 | 1108.2 |
| 20260906170950 | 71 | 18 | 0.0 | 1.7 | 0.00 | 0.00 | 0.00 | 44 | 1108.2 |
| 20260906170447 | 72 | 254 | 0.9 | 0.9 | 0.00 | 0.00 | 0.00 | 42 | 1108.4 |
| 20260906165944 | 72 | 227 | 0.9 | 1.7 | 0.00 | 0.00 | 0.00 | 44 | 1108.2 |
| 20260906165443 | 72 | 41 | 0.0 | 0.9 | 0.00 | 0.00 | 0.00 | 42 | 1108.2 |
| 20260906164938 | 72 | 17 | 0.9 | 1.7 | 0.00 | 0.00 | 0.00 | 43 | 1108.4 |
| 20260906164436 | 72 | 139 | 0.0 | 0.9 | 0.00 | 0.00 | 0.00 | 44 | 1108.4 |
| 20260906163933 | 70 | 29 | 0.9 | 0.9 | 0.00 | 0.00 | 0.00 | 47 | 1108.6 |
| 20260906163429 | 69 | 7 | 1.7 | 2.6 | 0.00 | 0.00 | 0.00 | 46 | 1108.3 |
| 20260906162927 | 68 | 16 | 0.9 | 1.7 | 0.00 | 0.00 | 0.00 | 47 | 1108.5 |
| 20260906162425 | 69 | 27 | 0.9 | 2.6 | 0.00 | 0.00 | 0.00 | 47 | 1108.4 |
| 20260906161920 | 70 | 173 | 0.9 | 1.7 | 0.00 | 0.00 | 0.00 | 48 | 1108.5 |
| 20260906161419 | 69 | 170 | 0.9 | 1.7 | 0.00 | 0.00 | 0.00 | 49 | 1108.6 |
| 20260906160918 | 71 | 161 | 1.7 | 1.7 | 0.00 | 0.00 | 0.00 | 46 | 1108.6 |
| 20260906160407 | 70 | 177 | 0.0 | 0.9 | 0.00 | 0.00 | 0.00 | 45 | 1109.0 |
| 20260906155905 | 68 | 172 | 0.0 | 1.7 | 0.00 | 0.00 | 0.00 | 47 | 1108.7 |
| 20260906155359 | 67 | 196 | 0.0 | 0.9 | 0.00 | 0.00 | 0.00 | 48 | 1109.1 |
| 20260906154856 | 68 | 168 | 0.9 | 1.7 | 0.00 | 0.00 | 0.00 | 50 | 1108.9 |
| 20260906154355 | 67 | 170 | 0.9 | 1.7 | 0.00 | 0.00 | 0.00 | 51 | 1109.1 |
| 20260906153854 | 66 | 181 | 0.9 | 0.9 | 0.00 | 0.00 | 0.00 | 51 | 1109.1 |
| 20260906153353 | 67 | 201 | 0.0 | 0.9 | 0.00 | 0.00 | 0.00 | 53 | 1109.1 |
| 20260906152848 | 66 | 201 | 0.0 | 0.9 | 0.00 | 0.00 | 0.00 | 57 | 1109.2 |
| 20260906152343 | 65 | 201 | 0.0 | 0.9 | 0.00 | 0.00 | 0.00 | 54 | 1109.3 |
| 20260906151842 | 66 | 208 | 0.0 | 0.9 | 0.00 | 0.00 | 0.00 | 53 | 1109.2 |
| 20260906151338 | 65 | 209 | 0.0 | 0.9 | 0.00 | 0.00 | 0.00 | 52 | 1109.0 |
| 20260906150834 | 65 | 210 | 0.0 | 1.7 | 0.00 | 0.00 | 0.00 | 53 | 1109.3 |
| 20260906150329 | 64 | 220 | 0.0 | 0.9 | 0.00 | 0.00 | 0.00 | 53 | 1109.2 |
| 20260906145828 | 62 | 228 | 0.0 | 0.9 | 0.00 | 0.00 | 0.00 | 56 | 1109.2 |
| 20260906145326 | 62 | 224 | 0.0 | 0.9 | 0.00 | 0.00 | 0.00 | 57 | 1109.2 |
| 20260906144822 | 60 | 232 | 0.0 | 0.9 | 0.00 | 0.00 | 0.00 | 59 | 1109.3 |
| 20260906144317 | 60 | 224 | 0.0 | 0.0 | 0.00 | 0.00 | 0.00 | 60 | 1109.3 |
| 20260906143817 | 57 | 227 | 0.0 | 0.9 | 0.00 | 0.00 | 0.00 | 64 | 1109.2 |
| 20260906143314 | 56 | 228 | 0.0 | 0.0 | 0.00 | 0.00 | 0.00 | 68 | 1109.5 |
| 20260906142808 | 56 | 228 | 0.0 | 0.9 | 0.00 | 0.00 | 0.00 | 67 | 1109.4 |
| 20260906142306 | 55 | 228 | 0.0 | 0.0 | 0.00 | 0.00 | 0.00 | 71 | 1109.2 |
| 20260906141802 | 54 | 228 | 0.0 | 0.0 | 0.00 | 0.00 | 0.00 | 73 | 1109.1 |
| 20260906141257 | 53 | 228 | 0.0 | 0.0 | 0.00 | 0.00 | 0.00 | 75 | 1109.3 |
| 20260906140756 | 52 | 227 | 0.0 | 0.0 | 0.00 | 0.00 | 0.00 | 76 | 1109.2 |
| 20260906140251 | 52 | 227 | 0.0 | 0.0 | 0.00 | 0.00 | 0.00 | 78 | 1109.2 |
| 20260906135749 | 52 | 227 | 0.0 | 0.0 | 0.00 | 0.00 | 0.00 | 78 | 1109.1 |
| 20260906135244 | 51 | 228 | 0.0 | 0.0 | 0.00 | 0.00 | 0.00 | 80 | 1108.9 |
| 20260906134739 | 51 | 228 | 0.0 | 0.0 | 0.00 | 0.00 | 0.00 | 78 | 1109.0 |
| 20260906134234 | 50 | 228 | 0.0 | 0.0 | 0.00 | 0.00 | 0.00 | 79 | 1109.0 |
| 20260906133730 | 50 | 228 | 0.0 | 0.0 | 0.00 | 0.00 | 0.00 | 80 | 1108.9 |
| 20260906133225 | 50 | 227 | 0.0 | 0.0 | 0.00 | 0.00 | 0.00 | 80 | 1108.6 |
| 20260906132720 | 49 | 228 | 0.0 | 0.0 | 0.00 | 0.00 | 0.00 | 81 | 1108.6 |
| 20260906132216 | 49 | 228 | 0.0 | 0.0 | 0.00 | 0.00 | 0.00 | 81 | 1108.7 |
| 20260906131711 | 49 | 228 | 0.0 | 0.0 | 0.00 | 0.00 | 0.00 | 82 | 1108.6 |
| 20260906131206 | 49 | 228 | 0.0 | 0.0 | 0.00 | 0.00 | 0.00 | 81 | 1108.6 |
| 20260906130701 | 48 | 228 | 0.0 | 0.0 | 0.00 | 0.00 | 0.00 | 82 | 1108.4 |
| 20260906130157 | 48 | 227 | 0.0 | 0.0 | 0.00 | 0.00 | 0.00 | 82 | 1108.4 |
| 20260906125649 | 49 | 227 | 0.0 | 0.0 | 0.00 | 0.00 | 0.00 | 82 | 1108.4 |
| 20260906125148 | 49 | 227 | 0.0 | 0.0 | 0.00 | 0.00 | 0.00 | 81 | 1108.5 |
| 20260906124644 | 49 | 227 | 0.0 | 0.0 | 0.00 | 0.00 | 0.00 | 81 | 1108.3 |
| 20260906124139 | 48 | 227 | 0.0 | 0.0 | 0.00 | 0.00 | 0.00 | 82 | 1108.3 |
| 20260906123638 | 48 | 227 | 0.0 | 0.0 | 0.00 | 0.00 | 0.00 | 83 | 1108.3 |
| 20260906123134 | 48 | 228 | 0.0 | 0.0 | 0.00 | 0.00 | 0.00 | 83 | 1108.3 |
| 20260906122632 | 48 | 227 | 0.0 | 0.0 | 0.00 | 0.00 | 0.00 | 82 | 1108.1 |
| 20260906122128 | 48 | 227 | 0.0 | 0.0 | 0.00 | 0.00 | 0.00 | 82 | 1108.3 |
| 20260906121624 | 49 | 227 | 0.0 | 0.0 | 0.00 | 0.00 | 0.00 | 81 | 1108.3 |
| 20260906121120 | 49 | 227 | 0.0 | 0.0 | 0.00 | 0.00 | 0.00 | 81 | 1108.3 |
| 20260906120616 | 49 | 227 | 0.0 | 0.0 | 0.00 | 0.00 | 0.00 | 80 | 1108.2 |
| 20260906120113 | 50 | 227 | 0.0 | 0.0 | 0.00 | 0.00 | 0.00 | 79 | 1108.4 |
| 20260906115612 | 50 | 228 | 0.0 | 0.0 | 0.00 | 0.00 | 0.00 | 78 | 1108.2 |
| 20260906115108 | 50 | 228 | 0.0 | 0.0 | 0.00 | 0.00 | 0.00 | 77 | 1108.3 |
| 20260906114602 | 51 | 227 | 0.0 | 0.0 | 0.00 | 0.00 | 0.00 | 76 | 1108.2 |
| 20260906114057 | 52 | 227 | 0.0 | 0.0 | 0.00 | 0.00 | 0.00 | 75 | 1107.9 |
| 20260906113556 | 53 | 228 | 0.0 | 0.0 | 0.00 | 0.00 | 0.00 | 73 | 1108.1 |
| 20260906113052 | 53 | 228 | 0.0 | 0.0 | 0.00 | 0.00 | 0.00 | 71 | 1108.2 |
| 20260906112551 | 54 | 228 | 0.0 | 0.0 | 0.00 | 0.00 | 0.00 | 69 | 1107.9 |
| 20260906112048 | 55 | 228 | 0.0 | 0.9 | 0.00 | 0.00 | 0.00 | 68 | 1107.9 |
| 20260906111548 | 55 | 229 | 0.0 | 0.9 | 0.00 | 0.00 | 0.00 | 66 | 1107.9 |
| 20260906111043 | 56 | 232 | 0.0 | 0.0 | 0.00 | 0.00 | 0.00 | 65 | 1108.1 |
| 20260906110542 | 56 | 236 | 0.0 | 0.9 | 0.00 | 0.00 | 0.00 | 65 | 1108.1 |
| 20260906110042 | 56 | 246 | 0.0 | 0.9 | 0.00 | 0.00 | 0.00 | 64 | 1107.7 |
| 20260906105537 | 56 | 244 | 0.0 | 1.7 | 0.00 | 0.00 | 0.00 | 64 | 1107.9 |
| 20260906105033 | 57 | 248 | 0.9 | 2.6 | 0.00 | 0.00 | 0.00 | 63 | 1107.9 |
| 20260906104531 | 57 | 254 | 0.0 | 0.9 | 0.00 | 0.00 | 0.00 | 63 | 1107.8 |
| 20260906104026 | 57 | 297 | 0.0 | 1.7 | 0.00 | 0.00 | 0.00 | 63 | 1107.8 |
| 20260906103524 | 57 | 268 | 0.9 | 2.6 | 0.00 | 0.00 | 0.00 | 62 | 1107.5 |
| 20260906103020 | 57 | 246 | 1.7 | 2.6 | 0.00 | 0.00 | 0.00 | 62 | 1107.8 |
| 20260906102520 | 58 | 305 | 1.7 | 2.6 | 0.00 | 0.00 | 0.00 | 61 | 1107.6 |
| 20260906102015 | 58 | 319 | 0.0 | 5.2 | 0.00 | 0.00 | 0.00 | 61 | 1107.7 |
| 20260906101510 | 58 | 288 | 0.0 | 4.3 | 0.00 | 0.00 | 0.00 | 62 | 1107.6 |
| 20260906101005 | 58 | 229 | 0.0 | 0.9 | 0.00 | 0.00 | 0.00 | 62 | 1107.4 |
| 20260906100500 | 58 | 262 | 1.7 | 1.7 | 0.00 | 0.00 | 0.00 | 62 | 1107.4 |
| 20260906100000 | 58 | 272 | 2.6 | 2.6 | 0.00 | 0.00 | 0.00 | 62 | 1107.5 |
| 20260906095455 | 58 | 288 | 2.6 | 2.6 | 0.00 | 0.00 | 0.00 | 62 | 1107.5 |
| 20260906094950 | 58 | 272 | 2.6 | 2.6 | 0.00 | 0.00 | 0.00 | 62 | 1107.5 |
| 20260906094449 | 58 | 239 | 0.0 | 1.7 | 0.00 | 0.00 | 0.00 | 63 | 1107.3 |
| 20260906093945 | 58 | 291 | 1.7 | 2.6 | 0.00 | 0.00 | 0.00 | 62 | 1107.1 |
| 20260906093441 | 58 | 250 | 0.9 | 2.6 | 0.00 | 0.00 | 0.00 | 61 | 1107.3 |
| 20260906092936 | 58 | 247 | 0.0 | 0.9 | 0.00 | 0.00 | 0.00 | 60 | 1107.0 |
| 20260906092435 | 58 | 293 | 0.9 | 1.7 | 0.00 | 0.00 | 0.00 | 60 | 1106.9 |
| 20260906091931 | 59 | 274 | 0.9 | 1.7 | 0.00 | 0.00 | 0.00 | 58 | 1106.7 |
| 20260906091426 | 59 | 260 | 2.6 | 4.3 | 0.00 | 0.00 | 0.00 | 55 | 1106.6 |
| 20260906090923 | 60 | 281 | 0.9 | 1.7 | 0.00 | 0.00 | 0.00 | 51 | 1106.4 |
| 20260906090418 | 61 | 313 | 0.9 | 0.9 | 0.00 | 0.00 | 0.00 | 46 | 1106.1 |
| 20260906085913 | 60 | 303 | 1.7 | 2.6 | 0.00 | 0.00 | 0.00 | 45 | 1106.2 |
| 20260906085412 | 59 | 278 | 0.9 | 1.7 | 0.00 | 0.00 | 0.00 | 49 | 1106.0 |
| 20260906084911 | 58 | 262 | 0.9 | 0.9 | 0.00 | 0.00 | 0.00 | 52 | 1106.1 |
| 20260906084406 | 58 | 250 | 0.9 | 1.7 | 0.00 | 0.00 | 0.00 | 52 | 1105.9 |
| 20260906083905 | 58 | 249 | 0.0 | 0.0 | 0.00 | 0.00 | 0.00 | 53 | 1105.9 |
| 20260906083401 | 59 | 250 | 0.9 | 0.9 | 0.00 | 0.00 | 0.00 | 53 | 1105.8 |
| 20260906082901 | 58 | 256 | 2.6 | 4.3 | 0.00 | 0.00 | 0.00 | 53 | 1105.8 |
| 20260906082401 | 58 | 268 | 0.9 | 0.9 | 0.00 | 0.00 | 0.00 | 55 | 1105.6 |
| 20260906081857 | 58 | 270 | 0.9 | 1.7 | 0.00 | 0.00 | 0.00 | 54 | 1105.6 |
| 20260906081352 | 59 | 284 | 0.9 | 1.7 | 0.00 | 0.00 | 0.00 | 51 | 1105.9 |
| 20260906080848 | 60 | 292 | 0.0 | 1.7 | 0.00 | 0.00 | 0.00 | 49 | 1105.6 |
| 20260906080345 | 62 | 312 | 0.0 | 0.9 | 0.00 | 0.00 | 0.00 | 46 | 1105.8 |
| 20260906075843 | 63 | 263 | 0.0 | 0.9 | 0.00 | 0.00 | 0.00 | 44 | 1105.9 |
| 20260906075339 | 66 | 267 | 0.9 | 2.6 | 0.00 | 0.00 | 0.00 | 41 | 1106.1 |
| 20260906074834 | 68 | 212 | 0.9 | 2.6 | 0.00 | 0.00 | 0.00 | 35 | 1106.0 |
| 20260906074334 | 68 | 240 | 0.9 | 0.9 | 0.00 | 0.00 | 0.00 | 35 | 1106.0 |
| 20260906073832 | 69 | 222 | 2.6 | 4.3 | 0.00 | 0.00 | 0.00 | 33 | 1105.6 |
| 20260906073328 | 69 | 175 | 0.9 | 4.3 | 0.00 | 0.00 | 0.00 | 34 | 1105.6 |
| 20260906072824 | 68 | 202 | 2.6 | 2.6 | 0.00 | 0.00 | 0.00 | 34 | 1105.6 |
| 20260906072320 | 66 | 221 | 0.9 | 0.9 | 0.00 | 0.00 | 0.00 | 37 | 1105.9 |
| 20260906071815 | 67 | 204 | 0.0 | 0.0 | 0.00 | 0.00 | 0.00 | 39 | 1105.9 |
| 20260906071310 | 68 | 204 | 0.0 | 1.7 | 0.00 | 0.00 | 0.00 | 34 | 1105.8 |
| 20260906070807 | 69 | 167 | 0.0 | 1.7 | 0.00 | 0.00 | 0.00 | 33 | 1105.5 |
| 20260906070302 | 69 | 159 | 0.0 | 2.6 | 0.00 | 0.00 | 0.00 | 32 | 1105.6 |
| 20260906065801 | 67 | 202 | 1.7 | 4.3 | 0.00 | 0.00 | 0.00 | 33 | 1105.8 |
| 20260906065257 | 67 | 196 | 0.0 | 1.7 | 0.00 | 0.00 | 0.00 | 35 | 1105.8 |
| 20260906064752 | 68 | 193 | 0.9 | 1.7 | 0.00 | 0.00 | 0.00 | 34 | 1105.8 |
| 20260906064248 | 68 | 230 | 2.6 | 2.6 | 0.00 | 0.00 | 0.00 | 33 | 1105.8 |
| 20260906063743 | 69 | 162 | 1.7 | 2.6 | 0.00 | 0.00 | 0.00 | 33 | 1106.0 |
| 20260906063239 | 69 | 192 | 0.0 | 0.9 | 0.00 | 0.00 | 0.00 | 32 | 1105.9 |
| 20260906062733 | 69 | 178 | 0.9 | 4.3 | 0.00 | 0.00 | 0.00 | 32 | 1105.9 |
| 20260906062227 | 69 | 173 | 0.9 | 1.7 | 0.00 | 0.00 | 0.00 | 32 | 1106.1 |
| 20260906061723 | 66 | 142 | 3.5 | 4.3 | 0.00 | 0.00 | 0.00 | 34 | 1106.1 |
| 20260906061220 | 61 | 197 | 0.0 | 0.9 | 0.00 | 0.00 | 0.00 | 42 | 1106.0 |
| 20260906060715 | 61 | 197 | 0.0 | 0.0 | 0.00 | 0.00 | 0.00 | 43 | 1106.1 |
| 20260906060212 | 61 | 197 | 0.0 | 0.9 | 0.00 | 0.00 | 0.00 | 43 | 1106.0 |
| 20260906055708 | 61 | 197 | 0.0 | 0.9 | 0.00 | 0.00 | 0.00 | 43 | 1106.3 |
| 20260906055203 | 61 | 197 | 0.0 | 0.9 | 0.00 | 0.00 | 0.00 | 43 | 1106.4 |
| 20260906054658 | 61 | 197 | 0.0 | 0.0 | 0.00 | 0.00 | 0.00 | 43 | 1106.3 |
| 20260906054157 | 62 | 197 | 0.0 | 1.7 | 0.00 | 0.00 | 0.00 | 43 | 1106.3 |
| 20260906053655 | 62 | 201 | 0.0 | 0.9 | 0.00 | 0.00 | 0.00 | 44 | 1106.4 |
| 20260906053149 | 62 | 201 | 0.0 | 0.0 | 0.00 | 0.00 | 0.00 | 44 | 1106.8 |
| 20260906052645 | 62 | 201 | 0.0 | 0.0 | 0.00 | 0.00 | 0.00 | 44 | 1106.6 |
| 20260906052141 | 62 | 202 | 0.9 | 0.9 | 0.00 | 0.00 | 0.00 | 45 | 1107.1 |
| 20260906051638 | 61 | 204 | 0.9 | 0.9 | 0.00 | 0.00 | 0.00 | 48 | 1107.3 |
| 20260906051137 | 60 | 202 | 0.0 | 0.0 | 0.00 | 0.00 | 0.00 | 50 | 1106.8 |
| 20260906050633 | 59 | 202 | 0.0 | 0.0 | 0.00 | 0.00 | 0.00 | 53 | 1107.1 |
| 20260906050128 | 59 | 202 | 0.0 | 0.0 | 0.00 | 0.00 | 0.00 | 54 | 1107.1 |
| 20260906045626 | 60 | 202 | 0.0 | 0.0 | 0.00 | 0.00 | 0.00 | 53 | 1107.0 |
| 20260906045121 | 60 | 202 | 0.0 | 0.0 | 0.00 | 0.00 | 0.00 | 53 | 1107.1 |
| 20260906044617 | 60 | 202 | 0.0 | 0.0 | 0.00 | 0.00 | 0.00 | 54 | 1107.1 |
| 20260906044112 | 60 | 202 | 0.0 | 0.0 | 0.00 | 0.00 | 0.00 | 52 | 1106.9 |
| 20260906043609 | 61 | 202 | 0.0 | 0.0 | 0.00 | 0.00 | 0.00 | 53 | 1107.4 |
| 20260906043104 | 61 | 202 | 0.0 | 0.0 | 0.00 | 0.00 | 0.00 | 53 | 1107.3 |
| 20260906042603 | 61 | 202 | 0.0 | 0.0 | 0.00 | 0.00 | 0.00 | 52 | 1107.8 |
| 20260906042058 | 61 | 202 | 0.0 | 0.0 | 0.00 | 0.00 | 0.00 | 53 | 1107.4 |
| 20260906041554 | 61 | 202 | 0.0 | 0.0 | 0.00 | 0.00 | 0.00 | 52 | 1107.7 |
| 20260906041048 | 60 | 202 | 0.0 | 0.9 | 0.00 | 0.00 | 0.00 | 55 | 1107.4 |
| 20260906040544 | 60 | 202 | 0.0 | 0.0 | 0.00 | 0.00 | 0.00 | 56 | 1107.5 |
| 20260906040039 | 60 | 202 | 0.0 | 0.0 | 0.00 | 0.00 | 0.00 | 56 | 1107.4 |
| 20260906035534 | 60 | 202 | 0.0 | 0.0 | 0.00 | 0.00 | 0.00 | 56 | 1107.6 |
| 20260906035025 | 60 | 202 | 0.0 | 0.0 | 0.00 | 0.00 | 0.00 | 57 | 1107.6 |
| 20260906034524 | 61 | 202 | 0.0 | 0.0 | 0.00 | 0.00 | 0.00 | 57 | 1107.5 |
| 20260906034019 | 61 | 202 | 0.9 | 0.9 | 0.00 | 0.00 | 0.00 | 59 | 1107.6 |
| 20260906033514 | 60 | 202 | 0.9 | 1.7 | 0.00 | 0.00 | 0.00 | 60 | 1107.9 |
| 20260906033010 | 61 | 203 | 0.0 | 0.0 | 0.00 | 0.00 | 0.00 | 62 | 1107.6 |
| 20260906032507 | 61 | 203 | 0.0 | 0.9 | 0.00 | 0.00 | 0.00 | 61 | 1107.6 |
| 20260906032001 | 62 | 203 | 0.0 | 0.0 | 0.00 | 0.00 | 0.00 | 60 | 1107.7 |
| 20260906031456 | 62 | 203 | 0.0 | 0.0 | 0.00 | 0.00 | 0.00 | 60 | 1107.8 |
| 20260906030951 | 63 | 203 | 0.0 | 0.0 | 0.00 | 0.00 | 0.00 | 57 | 1107.7 |
| 20260906030445 | 64 | 203 | 0.0 | 0.0 | 0.00 | 0.00 | 0.00 | 55 | 1107.6 |
| 20260906025940 | 64 | 203 | 0.0 | 0.0 | 0.00 | 0.00 | 0.00 | 54 | 1107.6 |
| 20260906025434 | 65 | 203 | 0.0 | 0.0 | 0.00 | 0.00 | 0.00 | 53 | 1107.4 |
| 20260906024933 | 66 | 203 | 0.0 | 0.0 | 0.00 | 0.00 | 0.00 | 51 | 1107.5 |
| 20260906024432 | 67 | 203 | 0.0 | 0.0 | 0.00 | 0.00 | 0.00 | 50 | 1107.4 |
| 20260906023927 | 68 | 203 | 0.0 | 0.9 | 0.00 | 0.00 | 0.00 | 47 | 1107.3 |
| 20260906023424 | 68 | 206 | 0.0 | 0.9 | 0.00 | 0.00 | 0.00 | 46 | 1107.3 |
| 20260906022924 | 68 | 208 | 0.0 | 0.9 | 0.00 | 0.00 | 0.00 | 46 | 1107.1 |
| 20260906022419 | 68 | 213 | 0.0 | 0.0 | 0.00 | 0.00 | 0.00 | 48 | 1107.0 |
| 20260906021914 | 68 | 214 | 0.0 | 0.9 | 0.00 | 0.00 | 0.00 | 45 | 1107.3 |
| 20260906021415 | 68 | 215 | 0.0 | 0.0 | 0.00 | 0.00 | 0.00 | 45 | 1107.1 |
| 20260906020914 | 69 | 216 | 0.0 | 0.0 | 0.00 | 0.00 | 0.00 | 44 | 1107.1 |
| 20260906020409 | 69 | 216 | 0.0 | 0.0 | 0.00 | 0.00 | 0.00 | 45 | 1107.1 |
| 20260906015904 | 70 | 216 | 0.0 | 0.0 | 0.00 | 0.00 | 0.00 | 43 | 1107.1 |
| 20260906015403 | 70 | 216 | 0.0 | 0.0 | 0.00 | 0.00 | 0.00 | 43 | 1107.3 |
| 20260906014902 | 71 | 216 | 0.0 | 0.9 | 0.00 | 0.00 | 0.00 | 44 | 1107.1 |
| 20260906014356 | 72 | 216 | 0.0 | 0.0 | 0.00 | 0.00 | 0.00 | 42 | 1107.1 |
| 20260906013853 | 73 | 216 | 0.0 | 0.0 | 0.00 | 0.00 | 0.00 | 40 | 1106.9 |
| 20260906013348 | 74 | 216 | 0.0 | 0.0 | 0.00 | 0.00 | 0.00 | 39 | 1107.1 |
| 20260906012843 | 75 | 216 | 0.0 | 0.0 | 0.00 | 0.00 | 0.00 | 37 | 1107.1 |
| 20260906012338 | 76 | 217 | 0.0 | 0.9 | 0.00 | 0.00 | 0.00 | 32 | 1107.3 |
| 20260906011838 | 77 | 218 | 0.0 | 0.0 | 0.00 | 0.00 | 0.00 | 34 | 1107.1 |
| 20260906011333 | 77 | 220 | 0.0 | 0.9 | 0.00 | 0.00 | 0.00 | 32 | 1107.4 |
| 20260906010829 | 78 | 239 | 0.0 | 0.9 | 0.00 | 0.00 | 0.00 | 31 | 1107.0 |
| 20260906010325 | 78 | 229 | 0.0 | 0.9 | 0.00 | 0.00 | 0.00 | 32 | 1107.1 |
| 20260906005820 | 79 | 220 | 0.9 | 0.9 | 0.00 | 0.00 | 0.00 | 31 | 1107.4 |
| 20260906005319 | 79 | 205 | 0.9 | 0.9 | 0.00 | 0.00 | 0.00 | 30 | 1107.4 |
| 20260906004818 | 80 | 205 | 0.0 | 0.9 | 0.00 | 0.00 | 0.00 | 31 | 1107.3 |
| 20260906004312 | 81 | 222 | 0.0 | 0.9 | 0.00 | 0.00 | 0.00 | 30 | 1107.0 |
| 20260906003808 | 82 | 225 | 1.7 | 1.7 | 0.00 | 0.00 | 0.00 | 28 | 1107.0 |
| 20260906003303 | 82 | 234 | 0.9 | 1.7 | 0.00 | 0.00 | 0.00 | 28 | 1106.9 |
| 20260906002759 | 82 | 258 | 0.9 | 1.7 | 0.00 | 0.00 | 0.00 | 28 | 1107.0 |
| 20260906002258 | 82 | 348 | 3.5 | 4.3 | 0.00 | 0.00 | 0.00 | 28 | 1107.1 |
| 20260906001754 | 83 | 254 | 0.0 | 0.9 | 0.00 | 0.00 | 0.00 | 26 | 1106.9 |
| 20260906001254 | 83 | 311 | 2.6 | 2.6 | 0.00 | 0.00 | 0.00 | 27 | 1107.0 |
| 20260906000749 | 83 | 288 | 0.9 | 4.3 | 0.00 | 0.00 | 0.00 | 28 | 1106.8 |
| 20260906000244 | 83 | 336 | 1.7 | 4.3 | 0.00 | 0.00 | 0.00 | 26 | 1107.4 |
| 20260905235739 | 83 | 322 | 0.9 | 5.2 | 0.00 | 0.00 | 0.00 | 27 | 1107.3 |
| 20260905235239 | 83 | 226 | 1.7 | 2.6 | 0.00 | 0.00 | 0.00 | 27 | 1107.0 |
| 20260905234735 | 83 | 303 | 1.7 | 2.6 | 0.00 | 0.00 | 0.00 | 27 | 1106.9 |
| 20260905234229 | 82 | 74 | 2.6 | 4.3 | 0.00 | 0.00 | 0.00 | 27 | 1106.9 |
| 20260905233725 | 83 | 213 | 0.0 | 1.7 | 0.00 | 0.00 | 0.00 | 29 | 1107.3 |
| 20260905233224 | 82 | 223 | 0.9 | 0.9 | 0.00 | 0.00 | 0.00 | 29 | 1107.0 |
| 20260905232719 | 83 | 223 | 0.9 | 2.6 | 0.00 | 0.00 | 0.00 | 27 | 1106.9 |